| time (UTC) | temp F | wind direction | speed MPH | gust MPH | rain 1hr in | rain 24hr in | rain mn in | humidity % | barometer mb |
| 20260506233247 | 46 | 104 | 0.0 | 0.0 | 0.00 | 0.00 | 0.00 | 86 | 1014.3 |
| 20260506232936 | 46 | 104 | 0.0 | 0.0 | 0.00 | 0.00 | 0.00 | 86 | 1014.2 |
| 20260506232748 | 46 | 104 | 0.0 | 0.0 | 0.00 | 0.00 | 0.00 | 86 | 1014.2 |
| 20260506232249 | 46 | 104 | 0.0 | 1.0 | 0.00 | 0.00 | 0.00 | 86 | 1014.2 |
| 20260506231932 | 46 | 104 | 0.0 | 1.0 | 0.00 | 0.00 | 0.00 | 86 | 1014.2 |
| 20260506231747 | 46 | 104 | 0.0 | 1.0 | 0.00 | 0.00 | 0.00 | 86 | 1014.2 |
| 20260506231249 | 46 | 104 | 0.0 | 1.0 | 0.00 | 0.00 | 0.00 | 86 | 1014.2 |
| 20260506230935 | 46 | 104 | 0.0 | 2.0 | 0.00 | 0.00 | 0.00 | 86 | 1014.2 |
| 20260506230747 | 46 | 104 | 0.0 | 2.0 | 0.00 | 0.00 | 0.00 | 86 | 1014.2 |
| 20260506230247 | 46 | 104 | 0.0 | 3.0 | 0.00 | 0.00 | 0.00 | 86 | 1014.2 |
| 20260506225933 | 46 | 104 | 1.0 | 3.0 | 0.00 | 0.00 | 0.00 | 86 | 1014.2 |
| 20260506225749 | 46 | 104 | 1.0 | 3.0 | 0.00 | 0.00 | 0.00 | 86 | 1014.1 |
| 20260506225248 | 46 | 106 | 1.0 | 2.0 | 0.00 | 0.00 | 0.00 | 86 | 1014.0 |
| 20260506224932 | 46 | 102 | 0.0 | 2.0 | 0.00 | 0.00 | 0.00 | 86 | 1014.1 |
| 20260506224747 | 46 | 102 | 0.0 | 2.0 | 0.00 | 0.00 | 0.00 | 86 | 1014.1 |
| 20260506224247 | 47 | 102 | 0.0 | 1.0 | 0.00 | 0.00 | 0.00 | 86 | 1014.0 |
| 20260506223933 | 47 | 102 | 0.0 | 2.0 | 0.00 | 0.00 | 0.00 | 86 | 1014.0 |
| 20260506223748 | 47 | 102 | 0.0 | 3.0 | 0.00 | 0.00 | 0.00 | 86 | 1014.0 |
| 20260506223248 | 47 | 101 | 1.0 | 3.0 | 0.00 | 0.00 | 0.00 | 86 | 1014.0 |
| 20260506222932 | 47 | 100 | 0.0 | 3.0 | 0.00 | 0.00 | 0.00 | 86 | 1014.0 |
| 20260506222748 | 47 | 102 | 0.0 | 2.0 | 0.00 | 0.00 | 0.00 | 86 | 1014.0 |
| 20260506222412 | 47 | 104 | 0.0 | 2.0 | 0.00 | 0.00 | 0.00 | 86 | 1014.1 |
| 20260506222248 | 47 | 104 | 0.0 | 1.0 | 0.00 | 0.00 | 0.00 | 86 | 1014.0 |
| 20260506221747 | 47 | 104 | 0.0 | 2.0 | 0.00 | 0.00 | 0.00 | 86 | 1014.0 |
| 20260506221247 | 47 | 104 | 1.0 | 2.0 | 0.00 | 0.00 | 0.00 | 86 | 1014.0 |
| 20260506220931 | 47 | 104 | 0.0 | 2.0 | 0.00 | 0.00 | 0.00 | 86 | 1013.9 |
| 20260506220747 | 47 | 100 | 1.0 | 2.0 | 0.00 | 0.00 | 0.00 | 86 | 1013.9 |
| 20260506220248 | 47 | 100 | 0.0 | 2.0 | 0.00 | 0.00 | 0.00 | 86 | 1013.8 |
| 20260506215930 | 47 | 104 | 1.0 | 2.0 | 0.00 | 0.00 | 0.00 | 86 | 1013.8 |
| 20260506215747 | 47 | 104 | 0.0 | 3.0 | 0.00 | 0.00 | 0.00 | 86 | 1013.8 |
| 20260506215248 | 48 | 106 | 1.0 | 3.0 | 0.00 | 0.00 | 0.00 | 86 | 1013.9 |
| 20260506214931 | 48 | 117 | 1.0 | 3.0 | 0.00 | 0.00 | 0.00 | 86 | 1013.8 |
| 20260506214850 | 48 | 75 | 0.0 | 3.0 | 0.00 | 0.00 | 0.00 | 86 | 1013.8 |
| 20260506214749 | 48 | 117 | 1.0 | 3.0 | 0.00 | 0.00 | 0.00 | 86 | 1013.9 |
| 20260506214242 | 48 | 75 | 0.0 | 3.0 | 0.00 | 0.00 | 0.00 | 86 | 1013.8 |
| 20260506213740 | 48 | 127 | 0.0 | 3.0 | 0.00 | 0.00 | 0.00 | 86 | 1013.8 |
| 20260506213242 | 48 | 68 | 0.0 | 0.0 | 0.00 | 0.00 | 0.00 | 86 | 1013.8 |
| 20260506212931 | 48 | 68 | 0.0 | 3.0 | 0.00 | 0.00 | 0.00 | 85 | 1013.8 |
| 20260506212740 | 48 | 68 | 1.0 | 3.0 | 0.00 | 0.00 | 0.00 | 85 | 1013.8 |
| 20260506212243 | 49 | 89 | 1.0 | 3.0 | 0.00 | 0.00 | 0.00 | 85 | 1013.7 |
| 20260506211934 | 49 | 87 | 1.0 | 3.0 | 0.00 | 0.00 | 0.00 | 85 | 1013.7 |
| 20260506211742 | 49 | 16 | 1.0 | 3.0 | 0.00 | 0.00 | 0.00 | 85 | 1013.6 |
| 20260506211241 | 49 | 35 | 1.0 | 3.0 | 0.00 | 0.00 | 0.00 | 85 | 1013.6 |
| 20260506210930 | 49 | 35 | 1.0 | 3.0 | 0.00 | 0.00 | 0.00 | 85 | 1013.6 |
| 20260506210740 | 49 | 35 | 1.0 | 3.0 | 0.00 | 0.00 | 0.00 | 85 | 1013.5 |
| 20260506210242 | 49 | 15 | 1.0 | 3.0 | 0.00 | 0.00 | 0.00 | 85 | 1013.5 |
| 20260506205931 | 49 | 14 | 1.0 | 3.0 | 0.00 | 0.00 | 0.00 | 84 | 1013.6 |
| 20260506205736 | 49 | 13 | 1.0 | 3.0 | 0.00 | 0.00 | 0.00 | 84 | 1013.6 |
| 20260506205237 | 49 | 65 | 1.0 | 4.0 | 0.00 | 0.00 | 0.00 | 84 | 1013.5 |
| 20260506204931 | 49 | 48 | 1.0 | 4.0 | 0.00 | 0.00 | 0.00 | 84 | 1013.5 |
| 20260506204738 | 50 | 50 | 1.0 | 4.0 | 0.00 | 0.00 | 0.00 | 84 | 1013.5 |
| 20260506204236 | 50 | 343 | 1.0 | 5.0 | 0.00 | 0.00 | 0.00 | 84 | 1013.5 |
| 20260506203931 | 50 | 341 | 1.0 | 5.0 | 0.00 | 0.00 | 0.00 | 84 | 1013.4 |
| 20260506203736 | 50 | 1 | 1.0 | 5.0 | 0.00 | 0.00 | 0.00 | 83 | 1013.4 |
| 20260506203238 | 50 | 113 | 2.0 | 5.0 | 0.00 | 0.00 | 0.00 | 83 | 1013.4 |
| 20260506202930 | 50 | 353 | 2.0 | 7.0 | 0.00 | 0.00 | 0.00 | 83 | 1013.4 |
| 20260506202739 | 50 | 343 | 2.0 | 7.0 | 0.00 | 0.00 | 0.00 | 83 | 1013.4 |
| 20260506202237 | 50 | 117 | 2.0 | 7.0 | 0.00 | 0.00 | 0.00 | 83 | 1013.4 |
| 20260506201930 | 50 | 58 | 2.0 | 4.0 | 0.00 | 0.00 | 0.00 | 82 | 1013.3 |
| 20260506201738 | 50 | 86 | 2.0 | 4.0 | 0.00 | 0.00 | 0.00 | 82 | 1013.4 |
| 20260506201232 | 50 | 88 | 2.0 | 5.0 | 0.00 | 0.00 | 0.00 | 82 | 1013.3 |
| 20260506200929 | 50 | 139 | 2.0 | 5.0 | 0.00 | 0.00 | 0.00 | 81 | 1013.3 |
| 20260506200725 | 50 | 351 | 2.0 | 5.0 | 0.00 | 0.00 | 0.00 | 81 | 1013.3 |
| 20260506200404 | 51 | 348 | 2.0 | 5.0 | 0.00 | 0.00 | 0.00 | 80 | 1013.2 |
| 20260506200219 | 51 | 105 | 2.0 | 5.0 | 0.00 | 0.00 | 0.00 | 81 | 1013.2 |
| 20260506195713 | 51 | 29 | 2.0 | 7.0 | 0.00 | 0.00 | 0.00 | 80 | 1013.1 |
| 20260506195212 | 51 | 352 | 2.0 | 7.0 | 0.00 | 0.00 | 0.00 | 79 | 1013.1 |
| 20260506194930 | 51 | 6 | 2.0 | 7.0 | 0.00 | 0.00 | 0.00 | 79 | 1013.0 |
| 20260506194712 | 51 | 41 | 2.0 | 7.0 | 0.00 | 0.00 | 0.00 | 79 | 1013.0 |
| 20260506194210 | 51 | 52 | 2.0 | 7.0 | 0.00 | 0.00 | 0.00 | 78 | 1013.0 |
| 20260506193929 | 51 | 347 | 2.0 | 7.0 | 0.00 | 0.00 | 0.00 | 78 | 1012.9 |
| 20260506193711 | 51 | 14 | 2.0 | 8.0 | 0.00 | 0.00 | 0.00 | 77 | 1012.8 |
| 20260506193212 | 51 | 64 | 3.0 | 8.0 | 0.00 | 0.00 | 0.00 | 77 | 1012.7 |
| 20260506192926 | 51 | 91 | 3.0 | 8.0 | 0.00 | 0.00 | 0.00 | 77 | 1012.8 |
| 20260506192709 | 51 | 35 | 2.0 | 7.0 | 0.00 | 0.00 | 0.00 | 76 | 1012.7 |
| 20260506192209 | 52 | 50 | 3.0 | 9.0 | 0.00 | 0.00 | 0.00 | 76 | 1012.7 |
| 20260506191924 | 52 | 169 | 3.0 | 9.0 | 0.00 | 0.00 | 0.00 | 76 | 1012.6 |
| 20260506191709 | 52 | 64 | 3.0 | 9.0 | 0.00 | 0.00 | 0.00 | 76 | 1012.6 |
| 20260506191208 | 52 | 48 | 3.0 | 8.0 | 0.00 | 0.00 | 0.00 | 76 | 1012.5 |
| 20260506190924 | 52 | 27 | 3.0 | 8.0 | 0.00 | 0.00 | 0.00 | 75 | 1012.4 |
| 20260506190850 | 53 | 137 | 3.0 | 10.0 | 0.00 | 0.00 | 0.00 | 73 | 1012.4 |
| 20260506190708 | 52 | 152 | 3.0 | 10.0 | 0.00 | 0.00 | 0.00 | 75 | 1012.5 |
| 20260506190209 | 53 | 14 | 2.0 | 10.0 | 0.00 | 0.00 | 0.00 | 74 | 1012.4 |
| 20260506185837 | 53 | 110 | 3.0 | 8.0 | 0.00 | 0.00 | 0.00 | 72 | 1012.3 |
| 20260506185706 | 53 | 110 | 2.0 | 9.0 | 0.00 | 0.00 | 0.00 | 73 | 1012.3 |
| 20260506185216 | 53 | 97 | 3.0 | 9.0 | 0.00 | 0.00 | 0.00 | 72 | 1012.3 |
| 20260506184705 | 53 | 156 | 3.0 | 9.0 | 0.00 | 0.00 | 0.00 | 72 | 1012.2 |
| 20260506184206 | 54 | 35 | 3.0 | 9.0 | 0.00 | 0.00 | 0.00 | 71 | 1012.3 |
| 20260506183923 | 54 | 296 | 3.0 | 9.0 | 0.00 | 0.00 | 0.00 | 71 | 1012.2 |
| 20260506183706 | 54 | 49 | 3.0 | 9.0 | 0.00 | 0.00 | 0.00 | 71 | 1012.2 |
| 20260506183204 | 54 | 18 | 3.0 | 9.0 | 0.00 | 0.00 | 0.00 | 69 | 1012.2 |
| 20260506182928 | 54 | 163 | 3.0 | 9.0 | 0.00 | 0.00 | 0.00 | 69 | 1012.2 |
| 20260506182659 | 55 | 354 | 3.0 | 9.0 | 0.00 | 0.00 | 0.00 | 68 | 1012.1 |
| 20260506182153 | 55 | 122 | 3.0 | 9.0 | 0.00 | 0.00 | 0.00 | 68 | 1012.0 |
| 20260506181924 | 55 | 156 | 3.0 | 8.0 | 0.00 | 0.00 | 0.00 | 68 | 1012.0 |
| 20260506181647 | 55 | 23 | 3.0 | 8.0 | 0.00 | 0.00 | 0.00 | 67 | 1012.0 |
| 20260506181141 | 55 | 58 | 3.0 | 10.0 | 0.00 | 0.00 | 0.00 | 66 | 1012.0 |
| 20260506180925 | 55 | 88 | 3.0 | 10.0 | 0.00 | 0.00 | 0.00 | 66 | 1012.0 |
| 20260506180635 | 55 | 141 | 3.0 | 10.0 | 0.00 | 0.00 | 0.00 | 66 | 1011.9 |
| 20260506180129 | 55 | 127 | 3.0 | 10.0 | 0.00 | 0.00 | 0.00 | 66 | 1012.0 |
| 20260506175924 | 56 | 41 | 3.0 | 10.0 | 0.00 | 0.00 | 0.00 | 66 | 1011.8 |
| 20260506175623 | 55 | 30 | 3.0 | 10.0 | 0.00 | 0.00 | 0.00 | 66 | 1011.9 |
| 20260506175359 | 55 | 117 | 4.0 | 10.0 | 0.00 | 0.00 | 0.00 | 65 | 1011.8 |
| 20260506175202 | 55 | 75 | 4.0 | 10.0 | 0.00 | 0.00 | 0.00 | 65 | 1011.9 |
| 20260506174611 | 55 | 41 | 4.0 | 10.0 | 0.00 | 0.00 | 0.00 | 65 | 1011.8 |
| 20260506174357 | 56 | 13 | 3.0 | 10.0 | 0.00 | 0.00 | 0.00 | 66 | 1011.6 |
| 20260506174200 | 55 | 105 | 3.0 | 9.0 | 0.00 | 0.00 | 0.00 | 66 | 1011.7 |
| 20260506173558 | 56 | 117 | 3.0 | 10.0 | 0.00 | 0.00 | 0.00 | 65 | 1011.6 |
| 20260506173053 | 56 | 181 | 4.0 | 10.0 | 0.00 | 0.00 | 0.00 | 65 | 1011.5 |
| 20260506172921 | 56 | 93 | 4.0 | 10.0 | 0.00 | 0.00 | 0.00 | 65 | 1011.5 |
| 20260506172547 | 56 | 45 | 4.0 | 10.0 | 0.00 | 0.00 | 0.00 | 65 | 1011.4 |
| 20260506172041 | 56 | 31 | 4.0 | 11.0 | 0.00 | 0.00 | 0.00 | 65 | 1011.6 |
| 20260506171919 | 56 | 75 | 4.0 | 11.0 | 0.00 | 0.00 | 0.00 | 65 | 1011.4 |
| 20260506171536 | 56 | 168 | 3.0 | 11.0 | 0.00 | 0.00 | 0.00 | 64 | 1011.4 |
| 20260506171031 | 56 | 110 | 4.0 | 11.0 | 0.00 | 0.00 | 0.00 | 64 | 1011.4 |
| 20260506170918 | 56 | 18 | 4.0 | 11.0 | 0.00 | 0.00 | 0.00 | 64 | 1011.3 |
| 20260506170523 | 56 | 42 | 4.0 | 11.0 | 0.00 | 0.00 | 0.00 | 64 | 1011.4 |
| 20260506170017 | 56 | 19 | 4.0 | 9.0 | 0.00 | 0.00 | 0.00 | 65 | 1011.2 |
| 20260506165918 | 56 | 1 | 3.0 | 11.0 | 0.00 | 0.00 | 0.00 | 64 | 1011.2 |
| 20260506165511 | 56 | 91 | 3.0 | 11.0 | 0.00 | 0.00 | 0.00 | 65 | 1011.3 |
| 20260506165005 | 56 | 112 | 3.0 | 9.0 | 0.00 | 0.00 | 0.00 | 64 | 1011.2 |
| 20260506164919 | 56 | 110 | 3.0 | 8.0 | 0.00 | 0.00 | 0.00 | 64 | 1011.3 |
| 20260506164459 | 57 | 144 | 3.0 | 7.0 | 0.00 | 0.00 | 0.00 | 65 | 1011.1 |
| 20260506163953 | 57 | 302 | 4.0 | 9.0 | 0.00 | 0.00 | 0.00 | 65 | 1011.2 |
| 20260506163921 | 57 | 12 | 4.0 | 9.0 | 0.00 | 0.00 | 0.00 | 65 | 1011.2 |
| 20260506163447 | 57 | 83 | 4.0 | 9.0 | 0.00 | 0.00 | 0.00 | 65 | 1011.1 |
| 20260506162941 | 57 | 57 | 3.0 | 10.0 | 0.00 | 0.00 | 0.00 | 65 | 1011.0 |
| 20260506162917 | 57 | 76 | 3.0 | 10.0 | 0.00 | 0.00 | 0.00 | 65 | 1011.0 |
| 20260506162435 | 57 | 71 | 4.0 | 15.0 | 0.00 | 0.00 | 0.00 | 65 | 1011.0 |
| 20260506161929 | 58 | 334 | 4.0 | 15.0 | 0.00 | 0.00 | 0.00 | 64 | 1011.1 |
| 20260506161918 | 58 | 85 | 4.0 | 15.0 | 0.00 | 0.00 | 0.00 | 64 | 1011.1 |
| 20260506161422 | 58 | 86 | 4.0 | 13.0 | 0.00 | 0.00 | 0.00 | 64 | 1011.0 |
| 20260506160918 | 58 | 150 | 4.0 | 12.0 | 0.00 | 0.00 | 0.00 | 64 | 1011.0 |
| 20260506160411 | 59 | 117 | 4.0 | 14.0 | 0.00 | 0.00 | 0.00 | 65 | 1011.1 |
| 20260506155912 | 58 | 202 | 4.0 | 14.0 | 0.00 | 0.00 | 0.00 | 65 | 1011.0 |
| 20260506155905 | 58 | 81 | 4.0 | 14.0 | 0.00 | 0.00 | 0.00 | 65 | 1011.0 |
| 20260506155359 | 59 | 154 | 4.0 | 11.0 | 0.00 | 0.00 | 0.00 | 66 | 1011.1 |
| 20260506154912 | 59 | 137 | 4.0 | 11.0 | 0.00 | 0.00 | 0.00 | 65 | 1011.0 |
| 20260506154853 | 59 | 356 | 4.0 | 11.0 | 0.00 | 0.00 | 0.00 | 65 | 1011.0 |
| 20260506154354 | 59 | 127 | 5.0 | 12.0 | 0.00 | 0.00 | 0.00 | 65 | 1011.0 |
| 20260506154347 | 59 | 68 | 4.0 | 10.0 | 0.00 | 0.00 | 0.00 | 65 | 1011.0 |
| 20260506153842 | 59 | 86 | 4.0 | 12.0 | 0.00 | 0.00 | 0.00 | 66 | 1010.9 |
| 20260506153342 | 59 | 13 | 4.0 | 12.0 | 0.00 | 0.00 | 0.00 | 65 | 1010.9 |
| 20260506152911 | 59 | 155 | 4.0 | 11.0 | 0.00 | 0.00 | 0.00 | 65 | 1010.9 |
| 20260506152846 | 59 | 73 | 4.0 | 11.0 | 0.00 | 0.00 | 0.00 | 65 | 1010.9 |
| 20260506152342 | 59 | 49 | 4.0 | 11.0 | 0.00 | 0.00 | 0.00 | 65 | 1010.9 |
| 20260506151913 | 59 | 355 | 4.0 | 12.0 | 0.00 | 0.00 | 0.00 | 67 | 1010.8 |
| 20260506151840 | 59 | 44 | 4.0 | 12.0 | 0.00 | 0.00 | 0.00 | 67 | 1010.9 |
| 20260506151341 | 59 | 86 | 4.0 | 12.0 | 0.00 | 0.00 | 0.00 | 67 | 1010.8 |
| 20260506150911 | 58 | 358 | 4.0 | 10.0 | 0.00 | 0.00 | 0.00 | 68 | 1010.8 |
| 20260506150840 | 58 | 19 | 4.0 | 10.0 | 0.00 | 0.00 | 0.00 | 67 | 1010.8 |
| 20260506150340 | 58 | 64 | 5.0 | 11.0 | 0.00 | 0.00 | 0.00 | 68 | 1010.9 |
| 20260506145911 | 58 | 139 | 5.0 | 12.0 | 0.00 | 0.00 | 0.00 | 68 | 1010.8 |
| 20260506145841 | 58 | 172 | 5.0 | 12.0 | 0.00 | 0.00 | 0.00 | 68 | 1010.9 |
| 20260506145407 | 58 | 31 | 4.0 | 11.0 | 0.00 | 0.00 | 0.00 | 67 | 1010.9 |
| 20260506145344 | 58 | 108 | 5.0 | 12.0 | 0.00 | 0.00 | 0.00 | 67 | 1010.9 |
| 20260506144839 | 58 | 358 | 4.0 | 11.0 | 0.00 | 0.00 | 0.00 | 67 | 1010.9 |
| 20260506144339 | 58 | 127 | 4.0 | 14.0 | 0.00 | 0.00 | 0.00 | 66 | 1010.9 |
| 20260506143911 | 59 | 152 | 5.0 | 14.0 | 0.00 | 0.00 | 0.00 | 65 | 1010.8 |
| 20260506143842 | 59 | 333 | 5.0 | 14.0 | 0.00 | 0.00 | 0.00 | 65 | 1010.8 |
| 20260506143824 | 59 | 81 | 4.0 | 12.0 | 0.00 | 0.00 | 0.00 | 65 | 1010.7 |
| 20260506143337 | 59 | 87 | 5.0 | 12.0 | 0.00 | 0.00 | 0.00 | 65 | 1010.6 |
| 20260506142839 | 59 | 177 | 5.0 | 12.0 | 0.00 | 0.00 | 0.00 | 65 | 1010.7 |
| 20260506142339 | 59 | 152 | 4.0 | 12.0 | 0.00 | 0.00 | 0.00 | 65 | 1010.7 |
| 20260506141912 | 58 | 171 | 4.0 | 12.0 | 0.00 | 0.00 | 0.00 | 66 | 1010.6 |
| 20260506141833 | 58 | 143 | 4.0 | 12.0 | 0.00 | 0.00 | 0.00 | 66 | 1010.7 |
| 20260506141400 | 58 | 25 | 4.0 | 9.0 | 0.00 | 0.00 | 0.00 | 66 | 1010.7 |
| 20260506141335 | 58 | 54 | 4.0 | 9.0 | 0.00 | 0.00 | 0.00 | 65 | 1010.8 |
| 20260506140833 | 58 | 166 | 4.0 | 9.0 | 0.00 | 0.00 | 0.00 | 66 | 1010.7 |
| 20260506140335 | 58 | 151 | 4.0 | 11.0 | 0.00 | 0.00 | 0.00 | 66 | 1010.7 |
| 20260506135912 | 58 | 54 | 4.0 | 11.0 | 0.00 | 0.00 | 0.00 | 67 | 1010.7 |
| 20260506135834 | 58 | 38 | 4.0 | 11.0 | 0.00 | 0.00 | 0.00 | 66 | 1010.7 |
| 20260506135334 | 58 | 133 | 4.0 | 14.0 | 0.00 | 0.00 | 0.00 | 65 | 1010.6 |
| 20260506134912 | 58 | 93 | 4.0 | 14.0 | 0.00 | 0.00 | 0.00 | 65 | 1010.7 |
| 20260506134838 | 58 | 86 | 4.0 | 14.0 | 0.00 | 0.00 | 0.00 | 65 | 1010.6 |
| 20260506134335 | 58 | 21 | 4.0 | 14.0 | 0.00 | 0.00 | 0.00 | 65 | 1010.7 |
| 20260506133912 | 58 | 12 | 5.0 | 14.0 | 0.00 | 0.00 | 0.00 | 63 | 1010.7 |
| 20260506133838 | 58 | 100 | 4.0 | 14.0 | 0.00 | 0.00 | 0.00 | 63 | 1010.7 |
| 20260506133335 | 58 | 14 | 4.0 | 14.0 | 0.00 | 0.00 | 0.00 | 64 | 1010.7 |
| 20260506132910 | 59 | 131 | 4.0 | 11.0 | 0.00 | 0.00 | 0.00 | 65 | 1010.6 |
| 20260506132833 | 59 | 122 | 4.0 | 14.0 | 0.00 | 0.00 | 0.00 | 65 | 1010.6 |
| 20260506132334 | 58 | 107 | 4.0 | 14.0 | 0.00 | 0.00 | 0.00 | 65 | 1010.6 |
| 20260506131910 | 58 | 93 | 4.0 | 14.0 | 0.00 | 0.00 | 0.00 | 66 | 1010.5 |
| 20260506131833 | 58 | 52 | 3.0 | 10.0 | 0.00 | 0.00 | 0.00 | 66 | 1010.4 |
| 20260506131334 | 59 | 107 | 3.0 | 11.0 | 0.00 | 0.00 | 0.00 | 69 | 1010.5 |
| 20260506130911 | 58 | 143 | 4.0 | 14.0 | 0.00 | 0.00 | 0.00 | 68 | 1010.5 |
| 20260506130835 | 58 | 127 | 4.0 | 14.0 | 0.00 | 0.00 | 0.00 | 69 | 1010.5 |
| 20260506130332 | 58 | 6 | 5.0 | 14.0 | 0.00 | 0.00 | 0.00 | 70 | 1010.5 |
| 20260506125911 | 58 | 135 | 5.0 | 13.0 | 0.00 | 0.00 | 0.00 | 68 | 1010.5 |
| 20260506125832 | 58 | 20 | 5.0 | 13.0 | 0.00 | 0.00 | 0.00 | 68 | 1010.5 |
| 20260506125332 | 58 | 105 | 4.0 | 11.0 | 0.00 | 0.00 | 0.00 | 69 | 1010.5 |
| 20260506124909 | 58 | 64 | 4.0 | 15.0 | 0.00 | 0.00 | 0.00 | 69 | 1010.4 |
| 20260506124826 | 58 | 156 | 5.0 | 15.0 | 0.00 | 0.00 | 0.00 | 69 | 1010.5 |
| 20260506124319 | 58 | 50 | 4.0 | 15.0 | 0.00 | 0.00 | 0.00 | 69 | 1010.5 |
| 20260506123908 | 58 | 8 | 4.0 | 10.0 | 0.00 | 0.00 | 0.00 | 69 | 1010.4 |
| 20260506123814 | 58 | 95 | 4.0 | 10.0 | 0.00 | 0.00 | 0.00 | 69 | 1010.5 |
| 20260506123308 | 58 | 148 | 3.0 | 9.0 | 0.00 | 0.00 | 0.00 | 69 | 1010.5 |
| 20260506122913 | 58 | 117 | 3.0 | 9.0 | 0.00 | 0.00 | 0.00 | 68 | 1010.5 |
| 20260506122805 | 58 | 40 | 3.0 | 10.0 | 0.00 | 0.00 | 0.00 | 68 | 1010.5 |
| 20260506122306 | 58 | 143 | 4.0 | 11.0 | 0.00 | 0.00 | 0.00 | 67 | 1010.3 |
| 20260506121910 | 58 | 181 | 4.0 | 11.0 | 0.00 | 0.00 | 0.00 | 66 | 1010.4 |
| 20260506121807 | 58 | 122 | 4.0 | 11.0 | 0.00 | 0.00 | 0.00 | 65 | 1010.4 |
| 20260506121307 | 58 | 90 | 4.0 | 11.0 | 0.00 | 0.00 | 0.00 | 65 | 1010.3 |
| 20260506120908 | 58 | 81 | 3.0 | 11.0 | 0.00 | 0.00 | 0.00 | 66 | 1010.3 |
| 20260506120803 | 58 | 144 | 3.0 | 11.0 | 0.00 | 0.00 | 0.00 | 66 | 1010.4 |
| 20260506120301 | 58 | 167 | 3.0 | 11.0 | 0.00 | 0.00 | 0.00 | 66 | 1010.3 |
| 20260506115906 | 58 | 127 | 4.0 | 10.0 | 0.00 | 0.00 | 0.00 | 68 | 1010.3 |
| 20260506115801 | 58 | 25 | 4.0 | 12.0 | 0.00 | 0.00 | 0.00 | 69 | 1010.4 |
| 20260506115300 | 58 | 6 | 4.0 | 12.0 | 0.00 | 0.00 | 0.00 | 67 | 1010.3 |
| 20260506114911 | 58 | 147 | 4.0 | 12.0 | 0.00 | 0.00 | 0.00 | 66 | 1010.3 |
| 20260506114759 | 58 | 337 | 4.0 | 11.0 | 0.00 | 0.00 | 0.00 | 67 | 1010.4 |
| 20260506114300 | 58 | 107 | 3.0 | 10.0 | 0.00 | 0.00 | 0.00 | 67 | 1010.3 |
| 20260506113907 | 58 | 18 | 3.0 | 14.0 | 0.00 | 0.00 | 0.00 | 67 | 1010.3 |
| 20260506113801 | 58 | 106 | 3.0 | 14.0 | 0.00 | 0.00 | 0.00 | 67 | 1010.3 |
| 20260506113300 | 58 | 62 | 4.0 | 14.0 | 0.00 | 0.00 | 0.00 | 68 | 1010.3 |
| 20260506112907 | 58 | 111 | 4.0 | 13.0 | 0.00 | 0.00 | 0.00 | 68 | 1010.4 |
| 20260506112800 | 58 | 107 | 4.0 | 13.0 | 0.00 | 0.00 | 0.00 | 68 | 1010.4 |
| 20260506112300 | 58 | 127 | 4.0 | 13.0 | 0.00 | 0.00 | 0.00 | 66 | 1010.3 |
| 20260506111907 | 58 | 140 | 4.0 | 11.0 | 0.00 | 0.00 | 0.00 | 66 | 1010.3 |
| 20260506111759 | 58 | 147 | 4.0 | 11.0 | 0.00 | 0.00 | 0.00 | 66 | 1010.3 |
| 20260506111300 | 58 | 141 | 4.0 | 11.0 | 0.00 | 0.00 | 0.00 | 64 | 1010.3 |
| 20260506110904 | 58 | 113 | 4.0 | 11.0 | 0.00 | 0.00 | 0.00 | 64 | 1010.3 |
| 20260506110800 | 58 | 63 | 4.0 | 11.0 | 0.00 | 0.00 | 0.00 | 64 | 1010.2 |
| 20260506110253 | 58 | 96 | 4.0 | 11.0 | 0.00 | 0.00 | 0.00 | 66 | 1010.3 |
| 20260506105905 | 58 | 167 | 4.0 | 11.0 | 0.00 | 0.00 | 0.00 | 65 | 1010.4 |
| 20260506105830 | 58 | 46 | 4.0 | 16.0 | 0.00 | 0.00 | 0.00 | 66 | 1010.3 |
| 20260506105746 | 58 | 90 | 4.0 | 11.0 | 0.00 | 0.00 | 0.00 | 66 | 1010.4 |
| 20260506105240 | 58 | 103 | 4.0 | 16.0 | 0.00 | 0.00 | 0.00 | 65 | 1010.4 |
| 20260506104734 | 58 | 93 | 4.0 | 16.0 | 0.00 | 0.00 | 0.00 | 67 | 1010.3 |
| 20260506104228 | 58 | 187 | 4.0 | 11.0 | 0.00 | 0.00 | 0.00 | 66 | 1010.3 |
| 20260506103908 | 58 | 117 | 4.0 | 11.0 | 0.00 | 0.00 | 0.00 | 66 | 1010.3 |
| 20260506103722 | 58 | 145 | 4.0 | 12.0 | 0.00 | 0.00 | 0.00 | 65 | 1010.3 |
| 20260506103216 | 58 | 145 | 4.0 | 12.0 | 0.00 | 0.00 | 0.00 | 67 | 1010.3 |
| 20260506102859 | 58 | 135 | 4.0 | 12.0 | 0.00 | 0.00 | 0.00 | 68 | 1010.3 |
| 20260506102710 | 57 | 117 | 3.0 | 10.0 | 0.00 | 0.00 | 0.00 | 69 | 1010.3 |
| 20260506102204 | 57 | 91 | 4.0 | 11.0 | 0.00 | 0.00 | 0.00 | 69 | 1010.3 |
| 20260506101859 | 57 | 70 | 4.0 | 11.0 | 0.00 | 0.00 | 0.00 | 69 | 1010.3 |
| 20260506101658 | 57 | 68 | 4.0 | 11.0 | 0.00 | 0.00 | 0.00 | 68 | 1010.3 |
| 20260506101514 | 57 | 6 | 3.0 | 9.0 | 0.00 | 0.00 | 0.00 | 71 | 1010.3 |
| 20260506101407 | 56 | 143 | 4.0 | 9.0 | 0.00 | 0.00 | 0.00 | 72 | 1010.2 |
| 20260506101334 | 57 | 117 | 3.0 | 9.0 | 0.00 | 0.00 | 0.00 | 70 | 1010.3 |
| 20260506100646 | 57 | 89 | 3.0 | 9.0 | 0.00 | 0.00 | 0.00 | 71 | 1010.3 |
| 20260506100143 | 56 | 97 | 4.0 | 9.0 | 0.00 | 0.00 | 0.00 | 73 | 1010.3 |
| 20260506095634 | 56 | 131 | 3.0 | 9.0 | 0.00 | 0.00 | 0.00 | 73 | 1010.2 |
| 20260506095127 | 56 | 338 | 3.0 | 8.0 | 0.00 | 0.00 | 0.00 | 74 | 1010.2 |
| 20260506094900 | 56 | 127 | 3.0 | 8.0 | 0.00 | 0.00 | 0.00 | 75 | 1010.2 |
| 20260506094622 | 56 | 347 | 3.0 | 8.0 | 0.00 | 0.00 | 0.00 | 75 | 1010.2 |
| 20260506094116 | 55 | 159 | 3.0 | 8.0 | 0.00 | 0.00 | 0.00 | 75 | 1010.2 |
| 20260506093900 | 55 | 6 | 3.0 | 8.0 | 0.00 | 0.00 | 0.00 | 75 | 1010.3 |
| 20260506093612 | 55 | 38 | 2.0 | 8.0 | 0.00 | 0.00 | 0.00 | 75 | 1010.2 |
| 20260506093104 | 55 | 117 | 3.0 | 8.0 | 0.00 | 0.00 | 0.00 | 76 | 1010.2 |
| 20260506092900 | 55 | 50 | 3.0 | 8.0 | 0.00 | 0.00 | 0.00 | 75 | 1010.2 |
| 20260506092558 | 55 | 68 | 4.0 | 12.0 | 0.00 | 0.00 | 0.00 | 75 | 1010.2 |
| 20260506092052 | 55 | 146 | 3.0 | 12.0 | 0.00 | 0.00 | 0.00 | 74 | 1010.2 |
| 20260506091900 | 55 | 131 | 3.0 | 12.0 | 0.00 | 0.00 | 0.00 | 74 | 1010.2 |
| 20260506091546 | 55 | 56 | 4.0 | 11.0 | 0.00 | 0.00 | 0.00 | 75 | 1010.1 |
| 20260506091040 | 55 | 254 | 4.0 | 11.0 | 0.00 | 0.00 | 0.00 | 73 | 1010.1 |
| 20260506090904 | 55 | 190 | 3.0 | 11.0 | 0.00 | 0.00 | 0.00 | 73 | 1010.1 |
| 20260506090534 | 55 | 117 | 3.0 | 11.0 | 0.00 | 0.00 | 0.00 | 74 | 1010.2 |
| 20260506090028 | 56 | 139 | 3.0 | 11.0 | 0.00 | 0.00 | 0.00 | 74 | 1010.1 |
| 20260506085856 | 56 | 132 | 3.0 | 11.0 | 0.00 | 0.00 | 0.00 | 73 | 1010.1 |
| 20260506085522 | 56 | 76 | 4.0 | 12.0 | 0.00 | 0.00 | 0.00 | 73 | 1010.1 |
| 20260506085016 | 56 | 110 | 4.0 | 12.0 | 0.00 | 0.00 | 0.00 | 73 | 1010.1 |
| 20260506084856 | 56 | 73 | 4.0 | 12.0 | 0.00 | 0.00 | 0.00 | 73 | 1010.1 |
| 20260506084814 | 56 | 65 | 3.0 | 10.0 | 0.00 | 0.00 | 0.00 | 73 | 1009.9 |
| 20260506084610 | 56 | 106 | 4.0 | 11.0 | 0.00 | 0.00 | 0.00 | 73 | 1010.0 |
| 20260506084131 | 56 | 97 | 4.0 | 10.0 | 0.00 | 0.00 | 0.00 | 72 | 1010.0 |
| 20260506083500 | 56 | 56 | 3.0 | 8.0 | 0.00 | 0.00 | 0.00 | 74 | 1010.0 |
| 20260506082952 | 56 | 53 | 3.0 | 8.0 | 0.00 | 0.00 | 0.00 | 76 | 1009.9 |
| 20260506082856 | 56 | 104 | 3.0 | 8.0 | 0.00 | 0.00 | 0.00 | 77 | 1009.9 |
| 20260506082453 | 56 | 91 | 3.0 | 8.0 | 0.00 | 0.00 | 0.00 | 77 | 1009.9 |
| 20260506081940 | 56 | 95 | 3.0 | 8.0 | 0.00 | 0.00 | 0.00 | 76 | 1010.0 |
| 20260506081854 | 56 | 95 | 3.0 | 8.0 | 0.00 | 0.00 | 0.00 | 76 | 1010.0 |
| 20260506081434 | 56 | 102 | 3.0 | 9.0 | 0.00 | 0.00 | 0.00 | 75 | 1009.9 |
| 20260506080928 | 56 | 98 | 3.0 | 9.0 | 0.00 | 0.00 | 0.00 | 76 | 1009.9 |
| 20260506080854 | 56 | 111 | 3.0 | 9.0 | 0.00 | 0.00 | 0.00 | 76 | 1009.9 |
| 20260506080822 | 55 | 85 | 3.0 | 10.0 | 0.00 | 0.00 | 0.00 | 76 | 1009.8 |
| 20260506080602 | 56 | 33 | 3.0 | 10.0 | 0.00 | 0.00 | 0.00 | 77 | 1009.8 |
| 20260506080113 | 55 | 27 | 4.0 | 10.0 | 0.00 | 0.00 | 0.00 | 76 | 1009.8 |
| 20260506073408 | 56 | 144 | 3.0 | 9.0 | 0.00 | 0.00 | 0.00 | 78 | 1009.8 |
| 20260506072907 | 55 | 93 | 4.0 | 10.0 | 0.00 | 0.00 | 0.00 | 79 | 1009.8 |
| 20260506072855 | 55 | 103 | 4.0 | 10.0 | 0.00 | 0.00 | 0.00 | 79 | 1009.8 |
| 20260506072402 | 55 | 117 | 3.0 | 10.0 | 0.00 | 0.00 | 0.00 | 80 | 1009.7 |
| 20260506071906 | 54 | 170 | 3.0 | 10.0 | 0.00 | 0.00 | 0.00 | 81 | 1009.8 |
| 20260506071853 | 54 | 16 | 3.0 | 10.0 | 0.00 | 0.00 | 0.00 | 81 | 1009.8 |
| 20260506071403 | 54 | 154 | 3.0 | 9.0 | 0.00 | 0.00 | 0.00 | 81 | 1009.8 |
| 20260506070903 | 53 | 63 | 3.0 | 9.0 | 0.00 | 0.00 | 0.00 | 82 | 1009.8 |
| 20260506070855 | 53 | 81 | 3.0 | 9.0 | 0.00 | 0.00 | 0.00 | 82 | 1009.8 |
| 20260506070825 | 53 | 97 | 2.0 | 5.0 | 0.00 | 0.00 | 0.00 | 82 | 1009.7 |
| 20260506070555 | 53 | 132 | 3.0 | 8.0 | 0.00 | 0.00 | 0.00 | 82 | 1009.7 |
| 20260506070109 | 53 | 98 | 2.0 | 5.0 | 0.00 | 0.00 | 0.00 | 82 | 1009.7 |
| 20260506062400 | 52 | 108 | 2.0 | 8.0 | 0.00 | 0.00 | 0.00 | 85 | 1009.6 |
| 20260506061901 | 52 | 85 | 2.0 | 9.0 | 0.00 | 0.00 | 0.00 | 85 | 1009.6 |
| 20260506061856 | 52 | 100 | 2.0 | 9.0 | 0.00 | 0.00 | 0.00 | 85 | 1009.6 |
| 20260506061401 | 52 | 93 | 3.0 | 9.0 | 0.00 | 0.00 | 0.00 | 85 | 1009.5 |
| 20260506060900 | 52 | 77 | 3.0 | 9.0 | 0.00 | 0.00 | 0.00 | 85 | 1009.4 |
| 20260506060855 | 52 | 41 | 3.0 | 9.0 | 0.00 | 0.00 | 0.00 | 85 | 1009.5 |
| 20260506060401 | 52 | 127 | 3.0 | 9.0 | 0.00 | 0.00 | 0.00 | 85 | 1009.4 |
| 20260506051356 | 51 | 2 | 2.0 | 7.0 | 0.00 | 0.00 | 0.00 | 85 | 1009.3 |
| 20260506050900 | 51 | 75 | 1.0 | 7.0 | 0.00 | 0.00 | 0.00 | 85 | 1009.3 |
| 20260506050852 | 51 | 75 | 1.0 | 7.0 | 0.00 | 0.00 | 0.00 | 85 | 1009.4 |
| 20260506050354 | 51 | 343 | 1.0 | 4.0 | 0.00 | 0.00 | 0.00 | 85 | 1009.4 |
| 20260506044850 | 51 | 349 | 2.0 | 7.0 | 0.00 | 0.00 | 0.00 | 85 | 1009.5 |
| 20260506044354 | 51 | 18 | 2.0 | 7.0 | 0.00 | 0.00 | 0.00 | 84 | 1009.6 |
| 20260506043859 | 51 | 52 | 2.0 | 6.0 | 0.00 | 0.00 | 0.00 | 84 | 1009.5 |
| 20260506043854 | 51 | 52 | 2.0 | 6.0 | 0.00 | 0.00 | 0.00 | 84 | 1009.6 |
| 20260506043354 | 51 | 159 | 2.0 | 8.0 | 0.00 | 0.00 | 0.00 | 84 | 1009.6 |
| 20260506042855 | 50 | 98 | 2.0 | 8.0 | 0.00 | 0.00 | 0.00 | 84 | 1009.5 |
| 20260506042849 | 50 | 359 | 2.0 | 8.0 | 0.00 | 0.00 | 0.00 | 84 | 1009.5 |
| 20260506042355 | 50 | 112 | 2.0 | 6.0 | 0.00 | 0.00 | 0.00 | 84 | 1009.6 |
| 20260506041857 | 50 | 14 | 2.0 | 6.0 | 0.00 | 0.00 | 0.00 | 84 | 1009.4 |
| 20260506041851 | 50 | 35 | 2.0 | 6.0 | 0.00 | 0.00 | 0.00 | 84 | 1009.5 |
| 20260506041354 | 50 | 66 | 2.0 | 6.0 | 0.00 | 0.00 | 0.00 | 84 | 1009.5 |
| 20260506040856 | 50 | 356 | 2.0 | 6.0 | 0.00 | 0.00 | 0.00 | 85 | 1009.5 |
| 20260506040851 | 50 | 4 | 2.0 | 6.0 | 0.00 | 0.00 | 0.00 | 85 | 1009.5 |
| 20260506040355 | 50 | 12 | 2.0 | 6.0 | 0.00 | 0.00 | 0.00 | 85 | 1009.5 |
| 20260506035855 | 51 | 68 | 2.0 | 6.0 | 0.00 | 0.00 | 0.00 | 85 | 1009.6 |
| 20260506035849 | 51 | 71 | 2.0 | 6.0 | 0.00 | 0.00 | 0.00 | 85 | 1009.5 |
| 20260506035356 | 51 | 23 | 2.0 | 6.0 | 0.00 | 0.00 | 0.00 | 85 | 1009.5 |
| 20260506034850 | 51 | 359 | 2.0 | 6.0 | 0.00 | 0.00 | 0.00 | 85 | 1009.5 |
| 20260506034342 | 51 | 112 | 2.0 | 5.0 | 0.00 | 0.00 | 0.00 | 85 | 1009.6 |
| 20260506033848 | 51 | 187 | 2.0 | 5.0 | 0.00 | 0.00 | 0.00 | 85 | 1009.5 |
| 20260506033837 | 51 | 80 | 2.0 | 5.0 | 0.00 | 0.00 | 0.00 | 85 | 1009.5 |
| 20260506033334 | 51 | 21 | 2.0 | 8.0 | 0.00 | 0.00 | 0.00 | 85 | 1009.6 |
| 20260506032844 | 51 | 127 | 3.0 | 8.0 | 0.00 | 0.00 | 0.00 | 85 | 1009.6 |
| 20260506032825 | 51 | 112 | 3.0 | 8.0 | 0.00 | 0.00 | 0.00 | 85 | 1009.6 |
| 20260506032319 | 51 | 133 | 3.0 | 9.0 | 0.00 | 0.00 | 0.00 | 86 | 1009.7 |
| 20260506031845 | 51 | 54 | 3.0 | 9.0 | 0.00 | 0.00 | 0.00 | 86 | 1009.7 |
| 20260506031813 | 51 | 9 | 3.0 | 9.0 | 0.00 | 0.00 | 0.00 | 86 | 1009.7 |
| 20260506031307 | 50 | 52 | 2.0 | 8.0 | 0.00 | 0.00 | 0.00 | 86 | 1009.8 |
| 20260506030844 | 50 | 338 | 2.0 | 7.0 | 0.00 | 0.00 | 0.00 | 86 | 1009.8 |
| 20260506030801 | 50 | 14 | 2.0 | 7.0 | 0.00 | 0.00 | 0.00 | 86 | 1009.8 |
| 20260506030255 | 50 | 143 | 1.0 | 5.0 | 0.00 | 0.00 | 0.00 | 86 | 1009.8 |
| 20260506025843 | 50 | 4 | 1.0 | 7.0 | 0.00 | 0.00 | 0.00 | 86 | 1009.9 |
| 20260506025749 | 50 | 0 | 1.0 | 7.0 | 0.00 | 0.00 | 0.00 | 86 | 1009.9 |
| 20260506025243 | 50 | 137 | 2.0 | 7.0 | 0.00 | 0.00 | 0.00 | 86 | 1009.8 |
| 20260506024844 | 50 | 127 | 2.0 | 6.0 | 0.00 | 0.00 | 0.00 | 86 | 1009.9 |
| 20260506024737 | 50 | 127 | 2.0 | 6.0 | 0.00 | 0.00 | 0.00 | 86 | 1009.9 |
| 20260506024231 | 50 | 33 | 2.0 | 8.0 | 0.00 | 0.00 | 0.00 | 86 | 1009.8 |
| 20260506023844 | 50 | 61 | 3.0 | 8.0 | 0.00 | 0.00 | 0.00 | 86 | 1009.9 |
| 20260506023725 | 50 | 314 | 3.0 | 8.0 | 0.00 | 0.00 | 0.00 | 86 | 1009.9 |
| 20260506023219 | 50 | 104 | 2.0 | 9.0 | 0.00 | 0.00 | 0.00 | 86 | 1009.9 |
| 20260506022843 | 50 | 98 | 2.0 | 9.0 | 0.00 | 0.00 | 0.00 | 86 | 1010.0 |
| 20260506022713 | 50 | 68 | 2.0 | 9.0 | 0.00 | 0.00 | 0.00 | 86 | 1010.0 |
| 20260506022209 | 50 | 21 | 2.0 | 8.0 | 0.00 | 0.00 | 0.00 | 85 | 1010.0 |
| 20260506021844 | 50 | 117 | 1.0 | 8.0 | 0.00 | 0.00 | 0.00 | 85 | 1009.8 |
| 20260506021701 | 50 | 63 | 1.0 | 8.0 | 0.00 | 0.00 | 0.00 | 84 | 1009.9 |
| 20260506021155 | 50 | 18 | 1.0 | 7.0 | 0.00 | 0.00 | 0.00 | 84 | 1010.0 |
| 20260506020839 | 50 | 26 | 1.0 | 5.0 | 0.00 | 0.00 | 0.00 | 84 | 1010.1 |
| 20260506020649 | 50 | 25 | 1.0 | 5.0 | 0.00 | 0.00 | 0.00 | 84 | 1010.1 |
| 20260506020143 | 50 | 68 | 1.0 | 6.0 | 0.00 | 0.00 | 0.00 | 84 | 1010.1 |
| 20260506015837 | 50 | 24 | 2.0 | 6.0 | 0.00 | 0.00 | 0.00 | 84 | 1010.1 |
| 20260506015637 | 50 | 1 | 1.0 | 6.0 | 0.00 | 0.00 | 0.00 | 84 | 1010.1 |
| 20260506015131 | 50 | 49 | 1.0 | 6.0 | 0.00 | 0.00 | 0.00 | 84 | 1010.2 |
| 20260506014838 | 50 | 4 | 1.0 | 4.0 | 0.00 | 0.00 | 0.00 | 85 | 1010.1 |
| 20260506014628 | 50 | 79 | 1.0 | 4.0 | 0.00 | 0.00 | 0.00 | 85 | 1010.2 |
| 20260506014127 | 50 | 32 | 1.0 | 4.0 | 0.00 | 0.00 | 0.00 | 85 | 1010.2 |
| 20260506013841 | 50 | 106 | 1.0 | 4.0 | 0.00 | 0.00 | 0.00 | 85 | 1010.2 |
| 20260506013627 | 50 | 76 | 1.0 | 4.0 | 0.00 | 0.00 | 0.00 | 85 | 1010.3 |
| 20260506013125 | 49 | 35 | 1.0 | 4.0 | 0.00 | 0.00 | 0.00 | 85 | 1010.2 |
| 20260506012837 | 49 | 349 | 1.0 | 3.0 | 0.00 | 0.00 | 0.00 | 85 | 1010.3 |
| 20260506012625 | 49 | 30 | 1.0 | 4.0 | 0.00 | 0.00 | 0.00 | 86 | 1010.3 |
| 20260506012125 | 49 | 42 | 1.0 | 4.0 | 0.00 | 0.00 | 0.00 | 86 | 1010.4 |
| 20260506011837 | 49 | 42 | 1.0 | 4.0 | 0.00 | 0.00 | 0.00 | 86 | 1010.3 |
| 20260506011623 | 49 | 21 | 1.0 | 4.0 | 0.00 | 0.00 | 0.00 | 86 | 1010.3 |
| 20260506011121 | 49 | 81 | 1.0 | 4.0 | 0.00 | 0.00 | 0.00 | 86 | 1010.4 |
| 20260506010839 | 49 | 189 | 1.0 | 4.0 | 0.00 | 0.00 | 0.00 | 86 | 1010.3 |
| 20260506010622 | 49 | 91 | 1.0 | 4.0 | 0.00 | 0.00 | 0.00 | 86 | 1010.4 |
| 20260506010122 | 49 | 3 | 1.0 | 5.0 | 0.00 | 0.00 | 0.00 | 86 | 1010.3 |
| 20260506005838 | 49 | 100 | 1.0 | 5.0 | 0.00 | 0.00 | 0.00 | 86 | 1010.3 |
| 20260506005622 | 49 | 191 | 1.0 | 5.0 | 0.00 | 0.00 | 0.00 | 86 | 1010.3 |
| 20260506005231 | 49 | 59 | 2.0 | 6.0 | 0.00 | 0.00 | 0.00 | 86 | 1010.7 |
| 20260506005120 | 49 | 117 | 1.0 | 4.0 | 0.00 | 0.00 | 0.00 | 86 | 1010.4 |
| 20260506005009 | 49 | 66 | 1.0 | 4.0 | 0.00 | 0.00 | 0.00 | 86 | 1010.4 |
| 20260506004622 | 49 | 107 | 1.0 | 6.0 | 0.00 | 0.00 | 0.00 | 86 | 1010.5 |
| 20260506004120 | 49 | 102 | 2.0 | 6.0 | 0.00 | 0.00 | 0.00 | 86 | 1010.5 |
| 20260506003618 | 49 | 88 | 2.0 | 6.0 | 0.00 | 0.00 | 0.00 | 86 | 1010.6 |
| 20260506003118 | 49 | 79 | 1.0 | 6.0 | 0.00 | 0.00 | 0.00 | 86 | 1010.7 |
| 20260506002832 | 48 | 165 | 1.0 | 4.0 | 0.00 | 0.00 | 0.00 | 86 | 1010.7 |
| 20260506002620 | 48 | 46 | 1.0 | 4.0 | 0.00 | 0.00 | 0.00 | 86 | 1010.7 |
| 20260506002118 | 48 | 139 | 1.0 | 4.0 | 0.00 | 0.00 | 0.00 | 86 | 1010.7 |
| 20260506001833 | 48 | 51 | 1.0 | 5.0 | 0.00 | 0.00 | 0.00 | 86 | 1010.8 |
| 20260506001613 | 48 | 52 | 1.0 | 5.0 | 0.00 | 0.00 | 0.00 | 86 | 1010.7 |
| 20260506001107 | 48 | 48 | 1.0 | 5.0 | 0.00 | 0.00 | 0.00 | 86 | 1010.8 |
| 20260506000829 | 48 | 45 | 1.0 | 4.0 | 0.00 | 0.00 | 0.00 | 86 | 1010.7 |
| 20260506000601 | 48 | 21 | 1.0 | 4.0 | 0.00 | 0.00 | 0.00 | 86 | 1010.9 |
| 20260506000101 | 48 | 53 | 1.0 | 3.0 | 0.00 | 0.00 | 0.00 | 86 | 1010.9 |
| 20260505235833 | 48 | 317 | 1.0 | 4.0 | 0.00 | 0.00 | 0.00 | 86 | 1011.0 |
| 20260505235601 | 48 | 55 | 1.0 | 4.0 | 0.00 | 0.00 | 0.00 | 86 | 1011.0 |
| 20260505235101 | 48 | 19 | 1.0 | 4.0 | 0.00 | 0.00 | 0.00 | 86 | 1011.1 |
| 20260505234829 | 48 | 66 | 1.0 | 4.0 | 0.00 | 0.00 | 0.00 | 86 | 1011.1 |
| 20260505234558 | 48 | 48 | 1.0 | 4.0 | 0.00 | 0.00 | 0.00 | 86 | 1011.1 |
| 20260505234309 | 48 | 15 | 1.0 | 4.0 | 0.00 | 0.00 | 0.00 | 86 | 1011.3 |
| 20260505234118 | 48 | 25 | 1.0 | 4.0 | 0.00 | 0.00 | 0.00 | 86 | 1011.2 |
| 20260505233559 | 48 | 16 | 2.0 | 4.0 | 0.00 | 0.00 | 0.00 | 86 | 1011.2 |